GFSFLT2_500_spd_012.txt.gz
Wind_Speed
71 73 75 78 82 87 92 97 102 107 109 106 101 90 77 67 56 48 44 42 43 44 46 47 45 47 48
72 75 81 86 91 96 101 106 107 102 92 82 73 62 47 40 41 36 36 37 37 39 39 39 42 44 46
78 84 89 96 101 105 105 97 87 78 70 61 44 45 44 40 34 35 34 33 33 33 35 40 42 44 46
87 92 99 103 106 97 81 71 59 52 46 45 46 43 38 36 37 34 32 32 31 33 35 36 36 36 38
95 100 103 97 81 66 54 44 44 48 46 45 42 39 40 40 36 34 34 32 32 32 33 33 33 35 38
103 103 87 69 53 47 46 45 43 47 45 38 39 38 42 40 39 34 35 34 33 34 33 31 32 33 30
97 77 58 53 53 52 51 48 44 44 44 37 40 39 43 42 41 34 35 35 34 33 30 28 29 29 32
68 56 54 56 54 51 50 47 45 45 45 38 37 38 38 40 42 34 36 35 34 31 30 29 28 31 34
55 55 53 52 52 50 48 48 45 45 49 44 39 36 38 37 43 36 35 34 33 30 28 30 32 34 34
51 50 48 47 48 48 47 46 47 43 48 46 41 41 33 33 42 38 32 33 30 30 29 31 32 35 33
44 44 44 45 46 45 45 45 43 41 42 38 31 32 36 27 32 41 35 30 26 29 29 29 32 36 31
41 43 45 47 44 41 42 42 43 42 38 37 29 27 29 26 25 33 35 31 27 25 27 32 35 38 35
42 45 46 44 42 39 40 39 40 41 40 36 31 25 23 21 19 26 26 30 25 23 28 32 34 37 32
43 45 47 45 42 41 38 37 37 38 40 38 31 25 19 17 16 17 22 21 25 28 32 34 31 31 30
44 45 46 43 41 41 40 37 37 35 32 32 31 26 21 11 10 15 14 17 22 27 28 25 27 29 17
43 45 44 40 39 41 40 37 33 31 30 25 20 17 21 20 5 5 10 16 20 21 22 23 21 23 18
42 43 43 40 39 38 35 31 26 25 23 20 13 11 12 15 7 5 6 15 16 21 23 27 21 22 24

GFSFLT2_500_spd_018.txt.gz
Wind_Speed
62 64 64 65 65 67 71 75 78 84 89 93 96 97 101 103 100 94 86 78 73 66 63 62 61 62 63
64 64 65 66 69 72 76 80 86 93 98 102 105 103 96 85 74 63 55 54 56 56 57 56 56 54 51
64 66 67 71 73 76 82 89 96 101 106 103 89 74 68 65 61 59 59 60 56 53 51 50 47 44 42
67 68 71 75 78 84 90 98 103 99 85 74 70 68 68 65 63 61 59 58 55 48 45 43 43 43 43
70 72 76 81 87 92 97 99 83 71 67 61 60 58 58 57 57 57 57 55 52 47 43 42 42 41 41
73 77 82 87 91 97 92 74 56 58 58 56 61 59 57 55 54 55 56 55 52 50 44 43 41 40 40
77 83 86 91 94 79 59 54 54 56 59 56 59 53 53 51 51 54 54 53 52 51 45 44 44 41 39
84 88 91 89 71 53 54 56 55 58 63 59 56 51 48 45 49 51 51 50 49 50 43 44 44 40 40
87 89 83 62 50 54 58 56 57 58 63 62 53 47 44 40 46 49 50 49 46 44 40 39 41 40 39
86 74 55 48 52 55 57 60 62 60 59 59 48 48 39 37 41 43 47 48 45 38 33 35 37 39 37
66 47 44 47 52 57 61 63 62 60 57 53 46 42 39 30 33 41 43 43 41 36 28 29 32 36 35
42 39 41 46 53 57 61 62 57 53 49 49 41 33 26 24 27 32 36 36 35 33 23 22 25 31 31
33 36 40 47 52 56 56 51 44 46 47 44 35 30 29 26 21 23 24 28 33 26 18 15 18 23 27
32 34 41 47 53 53 45 41 36 34 40 39 35 31 26 22 18 15 21 22 26 18 11 11 15 17 18
29 35 42 47 49 43 38 36 34 29 25 26 28 28 29 19 9 14 14 18 16 15 14 13 16 17 18
29 35 41 45 39 35 33 29 26 25 22 21 20 20 24 24 15 10 15 14 16 18 18 15 19 23 24
29 35 39 38 31 28 25 25 25 24 24 22 22 18 16 18 26 23 12 16 16 19 25 27 26 31 32

GFSFLT2_500_spd_021.txt.gz
Wind_Speed
62 65 66 66 66 67 68 69 70 73 75 78 80 84 88 91 94 97 99 100 98 93 86 82 78 75 72
66 67 67 68 68 67 70 72 75 78 81 83 87 90 94 98 99 95 88 78 74 72 70 67 65 64 63
68 67 67 67 68 70 72 75 79 83 87 89 92 96 97 91 80 71 67 65 64 62 61 62 64 66 66
69 68 67 70 72 73 75 79 82 87 92 93 95 87 75 71 69 66 66 67 66 65 63 61 58 58 59
69 67 70 73 75 78 80 82 86 91 90 80 73 68 70 70 70 70 70 69 67 62 59 56 55 55 56
68 71 74 76 79 81 83 86 87 80 72 59 66 68 69 71 71 70 69 68 64 59 56 54 54 54 53
73 75 76 80 81 84 86 86 77 66 62 58 67 67 71 70 67 67 65 62 59 56 52 50 49 49 50
76 78 79 81 83 85 83 73 55 58 66 63 69 71 68 60 56 58 59 58 56 52 47 44 43 43 45
78 79 80 82 85 80 63 52 52 59 67 71 64 56 50 42 46 52 57 57 55 50 45 42 40 36 39
80 81 82 82 71 54 47 50 56 60 66 55 49 45 35 31 35 42 48 50 50 48 45 44 36 28 33
80 82 78 58 45 44 48 54 59 58 52 47 38 36 35 28 24 34 39 41 42 44 44 37 27 21 28
78 66 43 37 40 43 50 57 56 46 43 39 31 32 28 24 22 27 33 35 36 33 32 27 19 14 26
44 30 29 34 38 44 51 51 42 40 36 34 33 32 32 29 21 26 28 29 34 31 26 20 13 11 22
21 24 29 32 39 45 44 38 34 34 36 34 33 30 29 27 21 22 24 26 24 22 17 12 9 12 16
20 24 27 33 39 40 36 34 34 32 31 30 29 30 31 31 24 21 21 23 23 20 20 17 16 12 12
22 24 28 33 35 35 34 34 32 31 27 25 26 25 28 30 36 32 22 23 25 26 25 18 19 19 15
23 24 29 32 33 33 33 33 32 29 31 30 30 29 26 24 28 34 32 32 25 24 25 19 20 25 19

GFSFLT2_500_spd_027.txt.gz
Wind_Speed
57 59 60 59 59 62 66 68 69 70 71 72 72 71 71 69 69 71 72 75 76 78 80 82 84 86 89
59 56 61 64 65 69 73 70 72 73 73 74 73 72 71 72 73 76 78 79 81 83 86 88 90 93 94
65 66 64 67 72 72 71 70 72 73 74 74 74 75 77 78 80 82 83 84 87 87 89 91 89 86 81
68 62 66 70 72 70 71 71 72 75 77 78 79 81 83 84 84 86 86 86 87 87 82 74 71 74 78
64 70 74 74 74 73 74 75 76 80 82 83 85 85 88 88 88 87 85 83 75 67 66 71 67 58 56
74 69 69 73 76 79 83 83 83 86 87 85 88 87 87 83 80 74 65 60 61 66 59 46 42 43 50
67 72 76 81 84 86 88 89 89 90 91 86 85 77 71 64 59 57 59 62 60 48 40 35 37 39 41
78 82 86 89 91 91 89 86 84 83 82 71 61 50 45 50 57 60 57 50 44 41 36 34 35 38 39
83 86 87 85 85 84 82 76 65 52 48 38 36 38 44 49 49 45 42 42 44 40 36 35 36 39 40
76 75 75 74 68 60 48 36 25 25 33 33 39 43 34 33 36 38 40 40 37 39 40 40 35 36 36
59 57 51 46 38 25 18 22 26 31 37 38 33 30 30 29 28 32 34 36 38 39 43 42 36 33 31
38 32 26 22 23 24 24 26 31 36 38 33 31 30 27 25 27 31 34 37 38 38 38 39 39 31 28
33 31 29 28 28 28 27 30 34 37 37 34 31 29 25 27 28 34 36 37 38 36 37 36 38 37 33
36 34 32 31 30 28 29 30 32 35 37 36 34 30 28 31 35 36 36 34 35 37 32 32 32 35 35
35 33 31 31 30 27 28 29 30 29 31 35 35 31 32 35 35 34 30 29 30 28 26 24 29 28 28
34 31 30 30 29 27 28 29 30 31 33 35 34 30 29 34 43 39 33 28 27 28 26 19 22 28 21
33 31 31 30 28 29 29 30 31 31 32 35 36 33 28 26 32 39 32 33 31 32 33 33 26 27 26

GFSFLT2_500_spd_030.txt.gz
Wind_Speed
60 64 61 64 62 69 72 66 64 65 71 73 72 74 75 73 73 73 74 74 74 75 76 77 78 80 82
66 62 65 66 66 73 74 74 66 68 72 75 77 75 74 74 74 75 76 76 77 79 81 83 84 86 88
66 64 66 72 74 69 69 71 72 73 79 82 81 76 77 79 80 81 83 83 84 85 86 87 88 89 91
64 72 71 75 70 65 68 71 74 75 77 79 82 85 87 88 89 88 89 90 90 90 89 89 89 87 85
68 70 73 73 72 74 75 77 78 81 84 86 88 90 92 92 91 90 90 89 87 84 82 77 70 61 56
67 65 70 68 70 74 77 81 85 87 89 90 91 90 89 88 84 81 78 73 68 60 51 48 50 52 47
58 63 67 72 76 80 83 85 85 86 85 83 83 76 67 58 52 49 46 44 44 47 48 44 39 37 39
64 68 72 75 78 78 77 76 77 77 76 61 51 41 34 37 41 44 46 48 45 38 35 37 36 36 35
67 68 68 67 65 62 61 60 55 48 37 24 30 31 35 41 43 45 43 40 38 37 34 33 35 36 36
60 57 54 52 50 46 41 33 28 29 28 30 36 37 31 37 39 41 40 38 34 34 36 36 38 40 41
49 48 48 47 44 40 36 34 34 33 31 32 35 33 31 30 32 36 34 34 35 38 40 42 43 43 41
47 47 46 44 42 40 38 36 35 33 34 33 32 31 30 29 28 30 32 34 37 39 41 43 43 43 42
46 45 44 42 39 37 35 34 33 31 32 33 32 30 30 30 26 28 31 32 37 39 39 40 40 41 40
44 43 41 39 36 35 34 32 31 31 33 34 35 32 30 31 30 30 32 33 33 34 30 31 35 35 34
40 39 38 36 35 34 33 32 31 32 34 36 37 34 33 35 34 36 31 30 31 32 32 29 32 35 33
37 36 35 35 35 35 33 32 31 31 33 35 36 35 35 36 45 39 36 32 31 32 33 29 29 34 30
37 36 36 37 36 35 34 32 31 31 33 35 36 35 33 31 36 43 36 31 32 32 34 33 30 28 28

GFSFLT2_500_spd_036.txt.gz
Wind_Speed
61 67 57 55 54 48 46 42 50 58 60 62 65 62 65 67 67 67 69 72 73 74 72 71 72 75 77
54 61 49 37 37 45 51 53 58 55 55 55 58 68 69 70 72 73 68 68 69 71 72 75 76 79 82
38 47 55 49 59 62 59 51 52 58 62 63 66 68 64 63 66 67 69 71 72 74 76 79 82 84 87
58 58 57 60 60 58 59 61 55 56 56 58 61 62 66 68 71 75 76 77 79 82 83 85 88 89 91
61 57 53 54 57 58 55 56 58 60 60 65 64 68 69 71 72 72 73 73 73 74 75 76 78 76 74
47 50 52 51 51 51 55 58 59 63 63 66 64 66 67 67 65 63 60 59 60 60 58 54 49 48 48
39 42 49 52 51 56 60 62 62 64 63 62 61 61 60 59 56 51 48 45 43 43 44 45 45 44 44
37 42 47 51 53 56 60 62 62 61 59 55 56 55 54 53 49 48 46 45 45 44 43 41 39 36 36
43 46 49 52 55 60 61 59 56 57 55 52 53 48 47 48 47 46 44 42 41 42 40 39 36 34 33
45 49 52 55 59 59 56 53 53 54 52 47 46 42 38 43 43 41 40 39 39 40 39 37 34 31 28
47 50 52 53 55 55 53 50 48 46 43 40 40 40 37 34 35 38 38 38 37 38 39 39 36 31 32
49 53 56 57 53 47 44 40 40 41 42 41 39 38 36 34 33 36 37 38 37 38 37 37 38 38 38
54 56 58 53 47 42 40 38 39 40 40 40 39 38 36 34 32 34 35 34 36 34 33 36 35 38 37
55 55 51 46 42 40 39 38 40 41 42 42 41 38 35 35 33 32 32 32 31 33 32 33 34 36 32
54 50 46 42 41 40 39 40 42 42 43 43 43 40 37 34 32 32 31 31 31 30 30 30 34 34 32
53 47 44 43 43 45 45 45 44 44 43 43 43 41 38 33 36 31 34 32 32 31 32 29 28 37 36
50 46 46 45 45 45 46 46 45 45 45 44 44 44 37 31 30 35 32 33 33 31 32 31 28 32 34

GFSFLT2_500_spd_039.txt.gz
Wind_Speed
60 53 54 43 43 49 52 54 43 40 38 38 44 44 48 52 54 55 51 52 57 62 64 65 68 71 70
57 59 49 55 45 42 38 42 45 47 51 53 48 49 50 53 53 56 61 63 63 64 65 67 70 72 75
52 55 62 55 53 53 53 53 53 52 50 50 50 51 53 54 55 56 58 60 62 63 64 67 69 71 73
27 44 57 53 44 48 50 47 45 44 48 48 48 52 54 57 60 62 64 67 67 69 70 72 74 77 79
50 43 39 42 45 44 44 41 43 46 47 50 53 55 57 58 60 62 65 67 68 69 72 72 73 74 75
34 33 35 37 33 35 39 42 45 49 52 52 55 57 60 63 62 62 62 62 61 60 59 57 54 53 54
29 29 30 31 34 40 45 48 51 52 53 57 59 61 61 58 56 56 56 55 53 51 49 49 48 49 49
25 30 33 36 40 45 48 52 55 55 54 57 58 56 54 53 52 51 49 46 45 44 45 45 44 44 45
32 36 40 43 46 49 50 52 54 55 56 54 50 47 49 50 48 46 44 43 43 42 41 40 39 40 39
39 42 45 46 49 51 53 55 56 57 57 51 48 45 44 47 47 47 45 44 43 42 40 39 37 36 35
43 46 48 51 53 55 56 56 55 53 50 43 43 42 40 40 43 44 45 44 43 42 41 38 39 39 37
46 48 50 53 54 55 55 53 50 47 45 42 41 40 40 39 37 39 43 43 42 42 42 40 41 40 39
47 49 52 55 56 56 53 49 45 45 44 42 40 40 41 40 36 36 39 40 41 41 39 38 40 39 38
52 55 57 58 58 55 50 46 44 47 47 47 46 44 43 42 39 38 39 37 39 38 36 35 36 37 37
58 59 59 58 56 53 50 47 46 46 48 49 47 46 44 43 40 41 39 36 37 34 35 33 33 36 36
54 57 58 56 52 50 48 47 46 47 47 49 50 48 45 44 44 42 40 36 34 32 33 30 29 35 36
49 56 55 52 50 48 47 46 46 46 48 49 49 48 45 43 43 43 41 36 33 31 33 32 29 31 34

GFSFLT2_500_spd_042.txt.gz
Wind_Speed
40 52 58 63 56 56 48 45 55 42 41 39 37 39 35 38 36 36 36 37 42 45 49 57 58 57 57
33 41 48 50 53 46 47 53 42 42 40 44 51 49 44 52 51 46 44 44 50 53 58 57 60 62 64
31 32 33 19 32 40 47 43 46 44 45 52 51 43 39 40 41 43 45 46 50 53 55 57 59 61 63
26 26 29 20 30 28 34 41 45 42 45 42 40 42 40 42 44 45 48 50 51 53 57 60 63 66 69
27 30 38 39 40 36 35 35 34 34 36 38 40 42 43 46 48 51 53 55 57 59 60 61 64 67 70
24 27 34 35 30 30 31 31 32 36 39 42 43 46 49 48 50 52 54 56 57 57 57 57 59 62 65
17 21 23 25 29 32 34 37 38 41 44 45 45 46 48 50 52 54 54 51 48 47 48 50 51 53 53
24 25 28 31 35 38 40 43 46 48 51 53 53 54 54 54 54 53 51 48 45 44 45 44 45 45 46
32 34 36 39 41 43 45 47 50 52 52 54 55 56 56 55 53 50 48 46 45 44 44 43 44 44 42
37 39 40 43 45 47 49 50 53 55 57 57 57 55 52 50 49 48 48 47 47 46 45 43 42 41 40
40 42 43 45 46 49 51 54 57 60 61 59 57 55 47 46 47 46 45 45 45 46 45 42 41 40 38
42 42 44 47 50 54 56 59 60 62 62 58 51 46 43 43 44 46 46 45 45 46 45 44 43 42 38
42 43 47 53 57 54 51 55 60 60 57 53 49 46 46 46 46 46 46 46 47 46 45 44 44 43 40
43 47 53 56 50 48 54 59 59 57 55 51 49 48 48 49 47 46 48 45 46 46 43 43 43 43 41
45 50 54 51 48 52 55 55 51 50 51 51 49 48 48 48 47 47 48 46 46 44 43 43 41 42 41
48 52 52 49 53 52 51 50 47 45 45 46 47 47 46 46 48 47 45 45 45 44 45 42 36 39 40
49 51 49 49 51 48 48 47 45 43 42 43 45 45 44 43 44 45 44 46 44 46 43 38 34 34 35

GFSFLT2_500_spd_045.txt.gz
Wind_Speed
35 42 40 38 23 37 42 46 47 47 45 46 34 39 38 40 42 38 34 34 39 37 41 47 50 50 57
29 29 33 31 24 31 34 38 36 33 42 41 44 39 37 40 42 46 49 47 45 48 41 37 40 43 45
25 23 19 23 21 11 13 17 20 29 43 49 45 41 45 42 44 41 38 40 38 40 42 43 45 45 48
24 20 21 22 22 26 32 29 28 25 28 34 37 39 38 37 37 39 40 40 41 43 44 46 47 50 51
23 19 18 21 22 24 27 29 28 26 27 30 33 34 36 37 40 41 42 44 45 46 48 50 51 52 55
23 23 22 22 22 23 24 26 27 28 30 35 35 39 41 43 45 46 47 47 48 50 52 54 54 56 58
29 28 28 29 29 30 32 34 36 37 38 42 42 45 46 48 49 50 51 51 52 53 54 54 55 54 53
32 33 34 35 35 37 37 39 41 43 44 46 46 47 49 52 54 55 55 54 53 53 51 48 46 46 47
35 36 37 38 39 40 40 41 43 44 46 48 51 54 56 57 57 57 56 54 51 47 45 44 44 43 44
37 37 38 39 40 41 41 42 46 51 55 57 56 56 57 60 60 59 55 51 47 46 44 44 43 42 43
39 39 40 42 42 42 46 48 52 56 56 52 52 57 60 59 56 55 52 48 46 46 44 43 44 43 43
40 40 42 44 44 45 47 51 53 54 52 52 56 60 59 55 51 52 51 49 48 48 48 47 46 45 46
41 42 44 46 47 48 48 52 52 51 55 56 56 56 54 51 47 47 50 49 49 49 48 45 45 46 46
43 44 46 50 50 49 50 51 51 54 52 50 51 52 50 47 45 43 49 47 49 49 48 46 47 48 47
44 46 48 51 51 50 52 52 49 50 50 49 49 49 48 43 40 42 45 45 47 49 49 47 47 47 47
45 47 50 52 52 52 54 52 49 48 48 49 50 49 48 41 40 38 40 44 47 48 49 46 43 46 47
47 49 51 52 53 55 56 53 49 48 47 48 49 47 44 40 37 40 40 43 43 42 44 44 44 43 46

GFSFLT2_500_spd_048.txt.gz
Wind_Speed
36 41 23 25 29 36 25 22 19 24 28 27 28 29 30 29 26 30 34 35 35 36 37 38 32 35 51
33 36 27 26 29 29 26 18 28 10 12 23 21 20 26 31 34 32 34 39 40 39 42 42 42 38 39
29 30 28 24 23 26 23 15 25 22 19 17 18 27 34 37 31 34 37 39 41 39 38 39 43 42 40
27 26 25 23 22 22 20 22 20 16 18 18 21 27 30 31 33 33 34 35 36 37 38 41 43 43 44
28 27 26 26 26 25 24 23 22 21 20 21 22 24 27 29 32 34 36 38 38 39 42 43 44 46 48
29 29 29 28 28 29 29 30 30 30 30 33 31 34 35 37 39 40 42 43 44 45 46 47 49 51 52
31 32 32 33 33 33 33 33 34 35 34 37 37 37 39 40 42 45 47 48 49 51 52 54 56 57 58
33 34 35 35 36 37 36 36 38 38 37 38 38 38 41 44 47 49 51 53 54 55 56 57 59 61 62
35 36 37 37 37 37 37 39 41 42 41 42 44 46 48 50 51 48 47 48 51 53 55 57 59 60 61
37 38 38 39 39 39 41 42 43 45 46 47 48 49 50 52 52 52 54 57 57 57 54 51 49 49 51
39 39 40 41 41 42 43 44 47 48 47 47 49 51 51 51 54 55 54 56 55 54 51 48 47 48 47
39 41 41 42 43 44 45 47 49 51 49 49 50 52 52 52 49 52 54 54 53 52 51 49 49 49 48
41 42 43 44 45 45 46 48 50 51 52 51 52 54 52 49 45 50 52 52 52 52 50 48 49 49 49
44 44 45 47 48 48 49 50 51 53 53 53 54 54 52 49 46 46 49 48 48 50 50 48 47 47 48
46 47 48 49 49 47 46 49 52 55 57 56 55 52 49 48 46 46 45 45 45 46 47 47 46 46 47
49 51 51 50 50 49 48 50 53 55 57 58 54 50 46 45 45 44 43 43 44 43 43 43 42 45 47
52 53 51 51 50 50 52 54 56 56 58 56 52 48 43 42 43 44 41 40 38 32 34 38 39 39 44

GFSFLT2_500_spd_051.txt.gz
Wind_Speed
32 33 30 28 29 28 29 32 32 24 23 20 12 14 10 19 19 20 19 20 22 27 29 35 35 34 30
30 28 27 27 27 27 27 28 29 29 20 18 13 11 16 17 17 21 25 28 29 28 31 35 38 34 37
26 27 28 27 27 26 26 26 25 24 23 22 20 17 13 20 23 25 34 35 34 36 39 40 42 43 42
26 27 28 27 27 27 28 28 28 27 27 24 22 21 21 21 28 30 32 31 32 33 36 38 41 40 39
28 29 29 30 30 30 30 30 30 30 29 29 29 29 28 28 30 32 33 33 34 36 36 37 38 38 40
30 30 31 31 31 32 32 32 33 32 31 31 30 31 32 34 36 38 39 40 41 41 43 44 45 46 46
32 33 33 33 33 33 34 34 35 34 34 35 34 34 35 36 37 39 40 40 41 42 44 45 48 52 54
34 34 34 35 35 36 36 37 37 36 37 38 37 38 38 40 42 42 44 46 46 45 46 48 51 55 57
36 36 36 36 37 38 38 38 39 39 40 40 40 41 41 42 45 47 48 48 48 48 49 49 51 53 56
37 37 37 37 38 39 39 39 40 42 43 44 44 45 45 45 47 50 51 50 51 51 54 53 52 52 54
38 38 38 39 39 40 40 41 43 44 45 46 47 46 46 47 51 51 50 50 52 53 52 49 49 50 51
41 41 41 43 44 44 44 45 46 46 47 47 47 47 48 48 50 52 51 51 52 51 50 50 48 48 49
43 43 45 46 46 48 49 49 49 48 48 47 46 48 51 51 50 51 51 51 51 51 50 49 47 48 49
43 45 47 49 50 51 52 52 50 49 48 48 49 50 53 52 52 52 51 48 50 50 48 47 47 46 45
45 47 49 51 52 53 54 50 50 50 51 52 51 51 51 52 51 50 49 48 47 47 44 43 43 44 44
46 48 49 52 54 54 50 49 50 52 54 54 53 52 52 51 49 47 47 44 43 41 41 39 38 38 39
48 49 53 53 51 51 52 53 54 54 52 51 53 54 51 47 45 47 44 42 39 38 38 37 32 33 33

GFSFLT2_500_spd_054.txt.gz
Wind_Speed
37 34 30 29 28 29 28 28 28 29 28 28 28 26 21 15 13 15 18 19 19 18 21 27 30 35 38
33 28 25 25 29 28 27 28 28 29 30 30 28 23 22 19 18 19 22 24 23 22 25 25 28 31 31
25 24 25 27 28 28 29 30 30 30 30 30 29 29 26 20 19 21 22 23 28 31 33 33 35 36 36
25 26 27 28 29 30 31 31 32 32 32 32 30 29 29 28 26 23 23 28 31 31 35 35 35 40 43
26 27 28 30 31 32 33 33 34 34 33 32 32 31 30 30 31 32 32 33 34 36 37 38 39 39 41
26 28 31 33 35 35 36 35 35 36 35 34 34 34 34 35 36 36 36 36 38 38 38 41 43 45 47
29 32 35 36 37 36 36 37 37 37 37 37 37 37 37 38 40 40 41 41 41 41 42 43 45 46 47
34 36 38 38 38 37 37 37 38 39 40 39 39 39 41 42 43 44 45 45 45 46 46 47 49 49 49
38 39 38 38 38 38 38 38 40 40 41 41 42 43 44 46 47 47 48 48 47 49 50 51 52 52 52
37 38 40 40 40 40 41 42 42 44 44 44 45 46 48 49 50 51 51 51 51 51 52 53 54 53 52
40 41 41 41 41 42 43 44 45 46 47 48 49 50 50 51 52 51 51 51 51 52 53 53 53 52 53
40 41 42 42 43 44 45 47 49 50 51 52 53 52 50 50 51 52 54 54 53 54 53 52 53 52 53
39 41 42 43 44 45 48 50 52 52 53 54 51 49 49 48 50 53 55 57 56 54 52 52 51 51 52
40 40 41 42 44 46 49 51 54 55 52 50 49 49 51 52 53 53 53 54 58 57 55 53 52 50 49
39 39 40 42 44 47 50 53 54 54 52 51 50 50 50 46 47 51 55 57 57 55 51 48 47 46 44
39 38 39 41 43 44 47 50 51 51 51 51 50 46 43 48 51 55 56 53 50 47 44 39 41 42 40
37 38 39 39 42 45 48 50 51 51 51 51 49 47 49 50 51 55 55 51 43 41 39 34 33 40 38

GFSFLT2_500_spd_057.txt.gz
Wind_Speed
38 37 35 33 30 27 24 27 28 28 29 29 30 30 29 27 22 24 24 22 25 21 13 12 16 22 28
35 32 29 25 25 25 26 27 28 29 30 30 31 31 30 30 27 22 22 23 24 22 16 16 17 21 26
30 27 26 25 25 26 27 28 30 31 32 32 32 31 31 29 29 28 23 22 24 24 23 27 27 29 29
29 28 27 26 26 27 29 31 32 33 33 33 33 33 32 31 31 30 30 28 25 24 27 28 32 36 37
29 27 27 27 27 29 31 33 34 35 35 34 34 34 34 34 34 34 34 35 35 33 31 31 32 35 38
29 28 28 29 31 33 35 36 35 36 34 34 35 35 36 36 36 35 36 37 38 39 41 40 39 38 39
27 28 30 32 35 37 37 36 36 35 36 36 36 37 38 38 38 38 39 40 42 43 44 46 47 46 45
30 31 33 35 35 35 35 36 37 37 37 38 39 39 40 40 41 42 43 44 46 48 49 49 50 51 51
34 35 36 37 37 38 38 39 39 39 39 41 42 43 44 45 46 47 48 49 49 50 51 52 53 54 53
36 37 38 38 39 39 40 40 41 41 42 43 44 46 48 49 50 50 50 51 51 51 52 52 53 53 52
37 37 35 36 37 39 40 41 41 41 42 44 47 48 50 51 53 52 51 51 51 51 50 50 51 53 55
38 37 37 38 39 39 40 41 41 41 43 45 47 49 51 51 50 50 51 52 50 50 50 52 54 55 54
40 40 39 39 39 39 39 40 41 42 43 43 47 50 51 50 49 50 50 51 51 49 46 46 47 50 53
38 38 38 38 38 39 39 39 41 40 43 46 48 49 49 48 48 50 48 45 47 49 49 51 54 55 54
36 36 38 39 39 38 39 38 39 43 45 46 49 50 49 48 48 49 48 50 51 52 54 51 52 50 44
37 38 38 38 38 37 35 39 42 43 46 47 48 50 48 50 50 49 51 51 53 52 52 48 42 45 39
38 39 39 39 36 35 39 41 45 48 50 51 51 51 49 49 48 50 52 55 55 51 45 37 32 39 39

GFSFLT2_500_spd_063.txt.gz
Wind_Speed
37 33 31 29 28 26 23 21 21 21 22 23 22 23 25 25 25 26 26 26 24 22 21 21 21 19 16
34 30 30 27 25 24 21 22 22 22 24 23 24 24 24 26 28 29 28 26 26 25 23 22 20 19 19
32 28 29 26 25 24 23 24 22 23 25 25 25 27 28 30 31 30 28 27 28 28 27 25 23 21 19
31 28 29 27 26 25 25 25 25 26 27 29 30 31 32 33 31 29 29 29 29 29 28 27 25 24 23
30 27 27 27 26 25 25 26 27 28 30 32 32 33 32 31 31 31 32 32 32 31 30 30 30 29 28
28 28 26 27 27 26 26 27 28 30 33 34 32 33 34 34 33 33 33 34 34 34 33 32 32 33 34
29 28 27 28 29 29 29 30 31 33 34 35 35 35 35 35 35 35 35 36 36 35 35 36 37 38 40
28 27 27 28 30 29 28 29 31 32 33 34 34 35 36 37 37 36 36 36 35 36 37 39 40 41 43
28 26 27 28 29 29 30 31 32 33 34 35 34 35 37 37 36 35 35 36 36 36 38 41 43 46 49
25 24 26 28 29 30 31 31 33 35 35 36 36 36 36 35 34 35 35 34 36 39 38 39 43 46 49
23 25 28 30 32 32 32 33 34 35 34 34 34 33 34 34 33 32 34 35 35 39 42 43 44 45 47
28 29 32 34 34 32 33 34 34 34 33 33 34 33 34 32 32 35 35 36 40 43 46 47 48 47 46
31 32 33 34 34 34 34 34 35 34 34 34 34 34 32 32 34 37 40 43 46 48 50 50 51 49 47
32 32 33 34 34 35 35 36 34 35 35 35 35 34 32 33 37 42 45 48 52 52 51 51 50 49 48
31 32 32 34 34 34 34 35 36 37 38 37 36 36 35 38 42 47 51 53 54 53 50 49 50 51 51
31 32 32 33 34 35 36 37 38 39 39 39 37 37 38 43 47 51 54 55 56 54 52 50 51 55 53
33 35 37 36 37 38 38 39 40 40 39 37 36 36 40 45 51 53 55 57 55 54 55 56 55 53 48

GFSFLT2_500_spd_066.txt.gz
Wind_Speed
46 43 39 39 37 35 32 29 28 26 23 22 22 22 22 22 22 21 22 23 25 25 23 22 22 21 23
46 43 40 38 36 33 30 28 28 26 23 23 24 23 24 25 25 25 26 27 27 26 26 24 23 23 24
42 40 38 36 32 31 29 29 28 26 24 24 25 25 26 27 29 30 30 29 28 27 26 26 27 26 25
38 37 37 35 32 31 30 30 27 26 25 25 26 27 29 30 31 31 29 29 29 30 30 30 29 28 26
35 35 33 32 32 31 31 29 25 26 25 26 27 29 30 31 31 31 31 33 33 34 34 34 33 32 30
33 30 32 32 30 30 30 28 26 27 28 29 30 31 31 32 34 34 33 33 33 34 35 35 35 34 33
29 29 32 29 31 30 29 29 28 28 29 30 30 30 30 32 33 33 34 34 34 34 34 34 33 32 32
31 29 28 31 30 29 29 29 29 29 30 31 30 31 32 33 33 34 34 34 34 33 32 32 32 33 33
27 29 29 30 29 28 28 27 28 29 30 31 32 33 33 33 33 34 34 33 32 32 32 32 32 33 34
29 27 29 29 29 27 25 26 29 31 31 32 33 33 32 31 31 31 32 32 32 31 31 33 32 34 37
28 29 30 31 29 27 28 29 30 31 32 33 33 32 32 31 31 32 32 32 31 32 34 34 37 40 44
30 30 28 29 31 31 30 30 31 32 33 34 34 34 33 33 33 34 34 32 33 34 36 39 43 46 49
30 28 29 31 31 31 30 31 32 33 34 34 34 34 35 35 36 36 35 34 35 36 40 44 48 51 53
27 28 31 31 30 31 31 32 32 33 32 32 34 36 38 39 38 38 38 38 39 41 45 50 53 55 56
28 30 30 31 30 31 32 32 33 34 35 34 35 37 38 38 39 39 41 43 44 46 50 53 56 57 56
30 30 29 30 32 33 34 35 37 38 37 36 37 38 38 39 39 40 40 42 45 49 52 54 55 57 55
30 32 33 34 35 36 37 39 40 39 39 39 40 40 40 40 40 39 41 45 49 52 55 56 53 55 58